| time (UTC) | temp C | wind direction | speed KPH | gust KPH | rain 1hr cm | rain 24hr cm | rain mn cm | humidity % | barometer mb |
| 20260504130737 | 12 | 293 | 9.7 | 12.9 | 0.00 | 0.00 | 0.00 | 47 | 1014.2 |
| 20260504130232 | 12 | 273 | 4.8 | 8.0 | 0.00 | 0.00 | 0.00 | 49 | 1014.2 |
| 20260504120156 | 11 | 283 | 6.4 | 6.4 | 0.00 | 0.00 | 0.00 | 51 | 1014.8 |
| 20260504110624 | 8 | 277 | 4.8 | 4.8 | 0.00 | 0.00 | 0.00 | 57 | 1014.3 |
| 20260504110120 | 8 | 276 | 4.8 | 6.4 | 0.00 | 0.00 | 0.00 | 57 | 1014.3 |
| 20260504100545 | 7 | 276 | 4.8 | 4.8 | 0.00 | 0.00 | 0.00 | 57 | 1014.0 |
| 20260504081939 | 8 | 290 | 8.0 | 8.0 | 0.00 | 0.00 | 0.00 | 55 | 1014.3 |
| 20260504081436 | 8 | 276 | 6.4 | 8.0 | 0.00 | 0.00 | 0.00 | 55 | 1014.3 |
| 20260504080932 | 8 | 272 | 6.4 | 8.0 | 0.00 | 0.00 | 0.00 | 55 | 1014.4 |
| 20260504080429 | 8 | 279 | 6.4 | 11.3 | 0.00 | 0.00 | 0.00 | 55 | 1014.4 |
| 20260504070356 | 9 | 278 | 6.4 | 11.3 | 0.00 | 0.00 | 0.00 | 52 | 1014.2 |
| 20260504050744 | 10 | 268 | 6.4 | 8.0 | 0.00 | 0.00 | 0.00 | 50 | 1014.2 |
| 20260504050241 | 10 | 277 | 8.0 | 11.3 | 0.00 | 0.00 | 0.00 | 51 | 1014.2 |
| 20260504045738 | 10 | 270 | 9.7 | 11.3 | 0.00 | 0.00 | 0.00 | 51 | 1014.3 |
| 20260504045233 | 10 | 269 | 8.0 | 8.0 | 0.00 | 0.00 | 0.00 | 51 | 1014.1 |
| 20260504044731 | 10 | 267 | 8.0 | 8.0 | 0.00 | 0.00 | 0.00 | 52 | 1014.1 |
| 20260504044229 | 10 | 272 | 6.4 | 8.0 | 0.00 | 0.00 | 0.00 | 51 | 1014.2 |
| 20260504043725 | 10 | 274 | 6.4 | 12.9 | 0.00 | 0.00 | 0.00 | 50 | 1014.1 |
| 20260504043222 | 10 | 276 | 8.0 | 8.0 | 0.00 | 0.00 | 0.00 | 50 | 1014.1 |
| 20260504042720 | 10 | 271 | 6.4 | 8.0 | 0.00 | 0.00 | 0.00 | 51 | 1014.1 |
| 20260504042216 | 10 | 276 | 6.4 | 8.0 | 0.00 | 0.00 | 0.00 | 50 | 1014.0 |
| 20260504041712 | 10 | 271 | 8.0 | 8.0 | 0.00 | 0.00 | 0.00 | 50 | 1014.1 |
| 20260504041208 | 10 | 275 | 6.4 | 6.4 | 0.00 | 0.00 | 0.00 | 51 | 1014.1 |
| 20260504040705 | 10 | 272 | 6.4 | 8.0 | 0.00 | 0.00 | 0.00 | 51 | 1014.1 |
| 20260504040202 | 10 | 274 | 6.4 | 8.0 | 0.00 | 0.00 | 0.00 | 51 | 1013.9 |
| 20260504035658 | 10 | 271 | 6.4 | 8.0 | 0.00 | 0.00 | 0.00 | 50 | 1014.0 |
| 20260504035156 | 10 | 266 | 8.0 | 8.0 | 0.00 | 0.00 | 0.00 | 50 | 1013.8 |
| 20260504034653 | 10 | 269 | 6.4 | 8.0 | 0.00 | 0.00 | 0.00 | 49 | 1013.7 |
| 20260504034150 | 10 | 265 | 8.0 | 8.0 | 0.00 | 0.00 | 0.00 | 50 | 1013.6 |
| 20260504033648 | 10 | 265 | 6.4 | 8.0 | 0.00 | 0.00 | 0.00 | 50 | 1013.5 |
| 20260504033145 | 10 | 266 | 6.4 | 11.3 | 0.00 | 0.00 | 0.00 | 48 | 1013.7 |
| 20260504032641 | 10 | 275 | 6.4 | 8.0 | 0.00 | 0.00 | 0.00 | 49 | 1013.7 |
| 20260504032139 | 10 | 264 | 8.0 | 11.3 | 0.00 | 0.00 | 0.00 | 48 | 1013.6 |
| 20260504031636 | 10 | 267 | 8.0 | 8.0 | 0.00 | 0.00 | 0.00 | 48 | 1013.5 |
| 20260504031132 | 10 | 261 | 9.7 | 11.3 | 0.00 | 0.00 | 0.00 | 47 | 1013.5 |
| 20260504030629 | 10 | 266 | 8.0 | 8.0 | 0.00 | 0.00 | 0.00 | 47 | 1013.5 |
| 20260504030125 | 10 | 265 | 8.0 | 11.3 | 0.00 | 0.00 | 0.00 | 47 | 1013.6 |
| 20260504025622 | 11 | 264 | 8.0 | 11.3 | 0.00 | 0.00 | 0.00 | 46 | 1013.7 |
| 20260504025119 | 11 | 266 | 9.7 | 11.3 | 0.00 | 0.00 | 0.00 | 47 | 1013.4 |
| 20260504024617 | 11 | 269 | 6.4 | 8.0 | 0.00 | 0.00 | 0.00 | 47 | 1013.5 |
| 20260504024113 | 11 | 268 | 6.4 | 8.0 | 0.00 | 0.00 | 0.00 | 46 | 1013.6 |
| 20260504023610 | 11 | 270 | 6.4 | 8.0 | 0.00 | 0.00 | 0.00 | 46 | 1013.5 |
| 20260504023105 | 11 | 265 | 8.0 | 8.0 | 0.00 | 0.00 | 0.00 | 47 | 1013.6 |
| 20260504022602 | 11 | 272 | 6.4 | 6.4 | 0.00 | 0.00 | 0.00 | 47 | 1013.7 |
| 20260504022058 | 11 | 275 | 6.4 | 6.4 | 0.00 | 0.00 | 0.00 | 46 | 1013.6 |
| 20260504021556 | 11 | 271 | 6.4 | 8.0 | 0.00 | 0.00 | 0.00 | 46 | 1013.5 |
| 20260504021053 | 11 | 278 | 8.0 | 8.0 | 0.00 | 0.00 | 0.00 | 45 | 1013.7 |
| 20260504020549 | 11 | 277 | 8.0 | 8.0 | 0.00 | 0.00 | 0.00 | 44 | 1013.6 |
| 20260504020046 | 11 | 268 | 8.0 | 11.3 | 0.00 | 0.00 | 0.00 | 44 | 1013.6 |
| 20260504015542 | 11 | 272 | 6.4 | 11.3 | 0.00 | 0.00 | 0.00 | 44 | 1013.7 |
| 20260504015038 | 11 | 264 | 9.7 | 11.3 | 0.00 | 0.00 | 0.00 | 44 | 1013.5 |
| 20260504014535 | 11 | 265 | 8.0 | 11.3 | 0.00 | 0.00 | 0.00 | 44 | 1013.6 |
| 20260504014032 | 11 | 262 | 9.7 | 11.3 | 0.00 | 0.00 | 0.00 | 43 | 1013.6 |
| 20260504013530 | 11 | 270 | 8.0 | 8.0 | 0.00 | 0.00 | 0.00 | 43 | 1013.5 |
| 20260504013026 | 11 | 263 | 8.0 | 11.3 | 0.00 | 0.00 | 0.00 | 44 | 1013.5 |
| 20260504012524 | 11 | 262 | 8.0 | 8.0 | 0.00 | 0.00 | 0.00 | 44 | 1013.5 |
| 20260504012021 | 11 | 267 | 6.4 | 8.0 | 0.00 | 0.00 | 0.00 | 44 | 1013.4 |
| 20260504011517 | 11 | 265 | 8.0 | 11.3 | 0.00 | 0.00 | 0.00 | 43 | 1013.5 |
| 20260504011013 | 11 | 264 | 6.4 | 8.0 | 0.00 | 0.00 | 0.00 | 43 | 1013.4 |
| 20260504010509 | 11 | 271 | 6.4 | 8.0 | 0.00 | 0.00 | 0.00 | 42 | 1013.4 |
| 20260504010005 | 11 | 276 | 4.8 | 6.4 | 0.00 | 0.00 | 0.00 | 42 | 1013.3 |
| 20260504005502 | 12 | 274 | 4.8 | 8.0 | 0.00 | 0.00 | 0.00 | 42 | 1013.4 |
| 20260504005000 | 12 | 281 | 6.4 | 6.4 | 0.00 | 0.00 | 0.00 | 42 | 1013.1 |
| 20260504004457 | 12 | 285 | 6.4 | 8.0 | 0.00 | 0.00 | 0.00 | 42 | 1013.3 |
| 20260504003954 | 12 | 283 | 6.4 | 8.0 | 0.00 | 0.00 | 0.00 | 41 | 1013.2 |
| 20260504003450 | 12 | 275 | 4.8 | 11.3 | 0.00 | 0.00 | 0.00 | 42 | 1013.0 |
| 20260504002947 | 12 | 278 | 6.4 | 8.0 | 0.00 | 0.00 | 0.00 | 42 | 1013.0 |
| 20260504002444 | 12 | 288 | 4.8 | 6.4 | 0.00 | 0.00 | 0.00 | 43 | 1012.9 |
| 20260504001942 | 12 | 276 | 4.8 | 6.4 | 0.00 | 0.00 | 0.00 | 42 | 1012.6 |
| 20260504001439 | 12 | 281 | 6.4 | 8.0 | 0.00 | 0.00 | 0.00 | 41 | 1012.6 |
| 20260504000935 | 12 | 286 | 6.4 | 6.4 | 0.00 | 0.00 | 0.00 | 42 | 1012.7 |
| 20260504000433 | 12 | 288 | 6.4 | 6.4 | 0.00 | 0.00 | 0.00 | 42 | 1012.8 |
| 20260503235930 | 12 | 283 | 6.4 | 8.0 | 0.00 | 0.00 | 0.00 | 41 | 1012.8 |
| 20260503235428 | 12 | 285 | 8.0 | 11.3 | 0.00 | 0.00 | 0.00 | 41 | 1012.6 |
| 20260503234925 | 13 | 276 | 8.0 | 11.3 | 0.00 | 0.00 | 0.00 | 39 | 1012.5 |
| 20260503234422 | 13 | 290 | 9.7 | 11.3 | 0.00 | 0.00 | 0.00 | 40 | 1012.6 |
| 20260503233920 | 13 | 289 | 8.0 | 11.3 | 0.00 | 0.00 | 0.00 | 39 | 1012.6 |
| 20260503233416 | 13 | 290 | 8.0 | 11.3 | 0.00 | 0.00 | 0.00 | 40 | 1012.5 |
| 20260503232913 | 13 | 290 | 8.0 | 11.3 | 0.00 | 0.00 | 0.00 | 40 | 1012.3 |
| 20260503232410 | 13 | 293 | 9.7 | 16.1 | 0.00 | 0.00 | 0.00 | 39 | 1012.3 |
| 20260503231908 | 13 | 288 | 11.3 | 17.7 | 0.00 | 0.00 | 0.00 | 39 | 1012.2 |
| 20260503231405 | 13 | 295 | 12.9 | 22.5 | 0.00 | 0.00 | 0.00 | 37 | 1012.2 |
| 20260503230901 | 13 | 287 | 14.5 | 19.3 | 0.00 | 0.00 | 0.00 | 37 | 1012.2 |
| 20260503230357 | 14 | 290 | 16.1 | 19.3 | 0.00 | 0.00 | 0.00 | 36 | 1012.2 |
| 20260503225855 | 13 | 302 | 9.7 | 17.7 | 0.00 | 0.00 | 0.00 | 37 | 1012.2 |
| 20260503225351 | 13 | 276 | 12.9 | 17.7 | 0.00 | 0.00 | 0.00 | 38 | 1012.2 |
| 20260503224848 | 14 | 299 | 12.9 | 19.3 | 0.00 | 0.00 | 0.00 | 37 | 1012.2 |
| 20260503224345 | 15 | 302 | 11.3 | 16.1 | 0.00 | 0.00 | 0.00 | 36 | 1012.1 |
| 20260503223843 | 14 | 305 | 14.5 | 17.7 | 0.00 | 0.00 | 0.00 | 34 | 1012.0 |
| 20260503223340 | 15 | 291 | 12.9 | 16.1 | 0.00 | 0.00 | 0.00 | 36 | 1012.0 |
| 20260503222835 | 14 | 295 | 12.9 | 16.1 | 0.00 | 0.00 | 0.00 | 36 | 1012.1 |
| 20260503222334 | 14 | 285 | 14.5 | 17.7 | 0.00 | 0.00 | 0.00 | 36 | 1012.2 |
| 20260503221832 | 14 | 305 | 11.3 | 16.1 | 0.00 | 0.00 | 0.00 | 36 | 1012.2 |
| 20260503221331 | 15 | 303 | 14.5 | 17.7 | 0.00 | 0.00 | 0.00 | 34 | 1012.1 |
| 20260503220826 | 15 | 291 | 16.1 | 17.7 | 0.00 | 0.00 | 0.00 | 35 | 1012.1 |
| 20260503220323 | 14 | 297 | 11.3 | 16.1 | 0.00 | 0.00 | 0.00 | 36 | 1012.3 |
| 20260503215814 | 15 | 288 | 17.7 | 19.3 | 0.00 | 0.00 | 0.00 | 36 | 1012.1 |
| 20260503215311 | 15 | 292 | 11.3 | 12.9 | 0.00 | 0.00 | 0.00 | 35 | 1012.2 |
| 20260503214809 | 15 | 294 | 11.3 | 12.9 | 0.00 | 0.00 | 0.00 | 35 | 1012.2 |
| 20260503214306 | 14 | 296 | 8.0 | 16.1 | 0.00 | 0.00 | 0.00 | 35 | 1012.1 |
| 20260503213803 | 14 | 297 | 11.3 | 16.1 | 0.00 | 0.00 | 0.00 | 36 | 1012.2 |
| 20260503213300 | 15 | 294 | 17.7 | 17.7 | 0.00 | 0.00 | 0.00 | 35 | 1012.0 |
| 20260503212757 | 15 | 292 | 17.7 | 19.3 | 0.00 | 0.00 | 0.00 | 34 | 1011.9 |
| 20260503212255 | 15 | 276 | 19.3 | 24.1 | 0.00 | 0.00 | 0.00 | 35 | 1011.9 |
| 20260503211752 | 14 | 295 | 14.5 | 17.7 | 0.00 | 0.00 | 0.00 | 35 | 1011.9 |
| 20260503211248 | 14 | 303 | 12.9 | 16.1 | 0.00 | 0.00 | 0.00 | 35 | 1012.1 |
| 20260503210744 | 15 | 312 | 17.7 | 24.1 | 0.00 | 0.00 | 0.00 | 35 | 1012.0 |
| 20260503210242 | 14 | 294 | 8.0 | 11.3 | 0.00 | 0.00 | 0.00 | 33 | 1011.9 |
| 20260503205742 | 15 | 297 | 9.7 | 17.7 | 0.00 | 0.00 | 0.00 | 33 | 1012.0 |
| 20260503205239 | 15 | 346 | 4.8 | 8.0 | 0.00 | 0.00 | 0.00 | 34 | 1011.9 |
| 20260503204735 | 14 | 335 | 4.8 | 8.0 | 0.00 | 0.00 | 0.00 | 38 | 1012.0 |
| 20260503204233 | 13 | 299 | 11.3 | 16.1 | 0.00 | 0.00 | 0.00 | 35 | 1012.1 |
| 20260503203730 | 15 | 346 | 4.8 | 16.1 | 0.00 | 0.00 | 0.00 | 33 | 1012.0 |
| 20260503203227 | 15 | 312 | 8.0 | 12.9 | 0.00 | 0.00 | 0.00 | 33 | 1012.1 |
| 20260503202724 | 14 | 351 | 12.9 | 16.1 | 0.00 | 0.00 | 0.00 | 34 | 1012.2 |
| 20260503202222 | 14 | 324 | 12.9 | 17.7 | 0.00 | 0.00 | 0.00 | 33 | 1012.2 |
| 20260503201720 | 15 | 288 | 16.1 | 17.7 | 0.00 | 0.00 | 0.00 | 34 | 1012.1 |
| 20260503201217 | 14 | 287 | 27.4 | 29.0 | 0.00 | 0.00 | 0.00 | 33 | 1012.2 |
| 20260503200713 | 13 | 326 | 9.7 | 19.3 | 0.00 | 0.00 | 0.00 | 33 | 1012.3 |
| 20260503200210 | 13 | 316 | 16.1 | 24.1 | 0.00 | 0.00 | 0.00 | 35 | 1012.2 |
| 20260503195707 | 15 | 314 | 12.9 | 25.7 | 0.00 | 0.00 | 0.00 | 33 | 1012.4 |
| 20260503195204 | 14 | 333 | 9.7 | 17.7 | 0.00 | 0.00 | 0.00 | 33 | 1012.5 |
| 20260503194701 | 14 | 353 | 9.7 | 16.1 | 0.00 | 0.00 | 0.00 | 33 | 1012.4 |
| 20260503194156 | 13 | 326 | 14.5 | 17.7 | 0.00 | 0.00 | 0.00 | 33 | 1012.7 |
| 20260503193653 | 13 | 326 | 6.4 | 12.9 | 0.00 | 0.00 | 0.00 | 35 | 1012.6 |
| 20260503193149 | 14 | 324 | 14.5 | 22.5 | 0.00 | 0.00 | 0.00 | 34 | 1012.8 |
| 20260503192645 | 13 | 294 | 22.5 | 25.7 | 0.00 | 0.00 | 0.00 | 34 | 1012.8 |
| 20260503192140 | 13 | 310 | 17.7 | 22.5 | 0.00 | 0.00 | 0.00 | 35 | 1012.8 |
| 20260503191637 | 13 | 301 | 6.4 | 11.3 | 0.00 | 0.00 | 0.00 | 37 | 1012.9 |
| 20260503191134 | 13 | 315 | 8.0 | 19.3 | 0.00 | 0.00 | 0.00 | 34 | 1013.0 |
| 20260503190631 | 13 | 311 | 16.1 | 19.3 | 0.00 | 0.00 | 0.00 | 35 | 1012.8 |
| 20260503190128 | 13 | 334 | 19.3 | 24.1 | 0.00 | 0.00 | 0.00 | 35 | 1013.0 |
| 20260503185625 | 13 | 351 | 11.3 | 25.7 | 0.00 | 0.00 | 0.00 | 37 | 1012.9 |
| 20260503185120 | 12 | 325 | 16.1 | 19.3 | 0.00 | 0.00 | 0.00 | 36 | 1013.1 |
| 20260503184615 | 13 | 295 | 11.3 | 12.9 | 0.00 | 0.00 | 0.00 | 37 | 1013.3 |
| 20260503184112 | 12 | 346 | 6.4 | 19.3 | 0.00 | 0.00 | 0.00 | 35 | 1013.3 |
| 20260503183609 | 12 | 348 | 6.4 | 17.7 | 0.00 | 0.00 | 0.00 | 37 | 1013.3 |
| 20260503183106 | 12 | 312 | 16.1 | 24.1 | 0.00 | 0.00 | 0.00 | 38 | 1013.4 |
| 20260503182604 | 12 | 353 | 11.3 | 19.3 | 0.00 | 0.00 | 0.00 | 35 | 1013.4 |
| 20260503182102 | 12 | 323 | 12.9 | 24.1 | 0.00 | 0.00 | 0.00 | 36 | 1013.3 |
| 20260503181559 | 12 | 302 | 22.5 | 25.7 | 0.00 | 0.00 | 0.00 | 37 | 1013.4 |
| 20260503181055 | 11 | 304 | 16.1 | 25.7 | 0.00 | 0.00 | 0.00 | 38 | 1013.4 |
| 20260503180552 | 11 | 303 | 25.7 | 29.0 | 0.00 | 0.00 | 0.00 | 38 | 1013.4 |
| 20260503180050 | 12 | 294 | 14.5 | 24.1 | 0.00 | 0.00 | 0.00 | 38 | 1013.4 |
| 20260503175547 | 11 | 276 | 17.7 | 19.3 | 0.00 | 0.00 | 0.00 | 39 | 1013.4 |
| 20260503175044 | 11 | 351 | 9.7 | 17.7 | 0.00 | 0.00 | 0.00 | 37 | 1013.5 |
| 20260503174541 | 11 | 317 | 17.7 | 22.5 | 0.00 | 0.00 | 0.00 | 39 | 1013.6 |
| 20260503174037 | 11 | 298 | 17.7 | 24.1 | 0.00 | 0.00 | 0.00 | 39 | 1013.5 |
| 20260503173532 | 12 | 306 | 27.4 | 33.8 | 0.00 | 0.00 | 0.00 | 39 | 1013.5 |
| 20260503173029 | 11 | 300 | 20.9 | 24.1 | 0.00 | 0.00 | 0.00 | 39 | 1013.6 |
| 20260503172527 | 11 | 322 | 11.3 | 17.7 | 0.00 | 0.00 | 0.00 | 39 | 1013.6 |
| 20260503172024 | 11 | 300 | 9.7 | 16.1 | 0.00 | 0.00 | 0.00 | 37 | 1013.8 |
| 20260503171520 | 11 | 347 | 4.8 | 16.1 | 0.00 | 0.00 | 0.00 | 38 | 1013.9 |
| 20260503171018 | 10 | 348 | 6.4 | 12.9 | 0.00 | 0.00 | 0.00 | 42 | 1013.9 |
| 20260503170514 | 11 | 327 | 8.0 | 12.9 | 0.00 | 0.00 | 0.00 | 41 | 1014.0 |
| 20260503150906 | 9 | 283 | 17.7 | 19.3 | 0.00 | 0.00 | 0.00 | 46 | 1014.4 |
| 20260503150403 | 10 | 315 | 6.4 | 11.3 | 0.00 | 0.00 | 0.00 | 43 | 1014.3 |